SUPERBIRD-C2

Last updated on Fri Jul 11 2025 00:02:42 GMT+0000 (Coordinated Universal Time)

1 33274U 08038A 25191.59023759 -.00000240 00000+0 00000+0 0 9991 2 33274 1.4769 85.7723 0000615 63.7195 135.6930 1.00271346102300
UTC large
Height (km)
Speed (km/s)
/
Latitude / Longitude
Inclination (degrees)
Orbital Period (minutes)
Azimuth
Elevation
Range (km)
Doppler Factor

Next 0 passes for location: London (51.5072 / 0.1276)

Sorry there are no passes over London.